Date String (YYYY-MM-DD hh:mm:ss) UTC,Instrument flags,absolute air pressure of the measurement (hPa),sample flow rate (lpm),inlet stack bypass flow (lpm),air temperature of the measurement (°C),ambient temperature measured by the external sensor (°C),aerosol sample conditioner tube jacket temperature (°C),OPC LED temperature (°C),internal box temperature (°C),relative humidity of the measurement (%),span deviation,mass concentration of particles derived from Lorenz-Mie calculation of OPC scattering (μg/m³),mass concentration of particles derived from Lorenz-Mie calculation of OPC scattering (μg/m³),mass concentration of particles derived from Lorenz-Mie calculation of OPC scattering (μg/m³)
DateTimeUTC,F1_M11,P_M11,Q1_M11,Q2_M11,T1_M11,T2_M11,T3_M11,T4_M11,T5_M11,U1_M11,ZSPAN_M11,X0_M11,X2_M11,X1_M11
2023-11-06 00:00:00,SystemResetWarning,0825.3,5.01,000.00,027.6,023.3,000.0,035.8,028.6,9.2,0000.0,0003.73,0002.51,0002.19
2023-11-06 00:01:00,SystemResetWarning,0825.3,5.00,000.00,027.4,023.7,000.0,035.7,028.3,9.3,0000.0,0003.76,0002.52,0002.19
2023-11-06 00:02:00,SystemResetWarning,0825.2,4.99,000.00,027.3,024.2,000.0,035.7,028.3,9.4,0000.0,0003.69,0002.48,0002.18
2023-11-06 00:03:00,SystemResetWarning,0825.3,5.02,000.00,027.3,024.7,000.0,035.7,028.5,9.4,0000.0,0003.81,0002.51,0002.19
2023-11-06 00:04:00,SystemResetWarning,0825.3,5.00,000.00,027.3,025.1,000.0,035.6,028.6,9.4,0000.0,0003.77,0002.51,0002.20
2023-11-06 00:05:00,SystemResetWarning,0825.3,5.00,000.00,027.3,025.4,000.0,035.6,028.7,9.4,0000.0,0003.77,0002.50,0002.20
2023-11-06 00:06:00,SystemResetWarning,0825.4,5.00,000.00,027.3,025.7,000.0,035.6,028.8,9.3,0000.0,0003.95,0002.51,0002.19
2023-11-06 00:07:00,SystemResetWarning,0825.3,4.99,000.00,027.3,025.9,000.0,035.6,028.9,9.3,0000.0,0004.00,0002.56,0002.21
2023-11-06 00:08:00,SystemResetWarning,0825.3,5.00,000.00,027.4,026.1,000.0,035.6,028.9,9.3,0000.0,0004.14,0002.59,0002.21
2023-11-06 00:09:00,SystemResetWarning,0825.2,5.00,000.00,027.4,026.3,000.0,035.6,029.0,9.3,0000.0,0004.03,0002.62,0002.21
2023-11-06 00:10:00,SystemResetWarning,0825.3,5.00,000.00,027.4,026.4,000.0,035.6,029.0,9.2,0000.0,0003.99,0002.63,0002.24
2023-11-06 00:11:00,SystemResetWarning,0825.3,5.00,000.00,027.5,026.5,000.0,035.7,029.1,9.3,0000.0,0003.93,0002.61,0002.24
2023-11-06 00:12:00,SystemResetWarning,0825.3,5.00,000.00,027.5,026.6,000.0,035.7,029.1,9.2,0000.0,0003.99,0002.62,0002.24
2023-11-06 00:13:00,SystemResetWarning,0825.3,5.00,000.00,027.6,026.7,000.0,035.7,029.2,9.2,0000.0,0004.06,0002.64,0002.24
2023-11-06 00:14:00,SystemResetWarning,0825.3,5.00,000.00,027.6,026.8,000.0,035.7,029.2,9.1,0000.0,0003.93,0002.61,0002.24
2023-11-06 00:15:00,SystemResetWarning,0825.3,5.00,000.00,027.6,026.8,000.0,035.7,029.3,9.1,0000.0,0003.92,0002.61,0002.25
2023-11-06 00:16:00,SystemResetWarning,0825.3,4.99,000.00,027.7,026.9,000.0,035.8,029.3,9.1,0000.0,0003.95,0002.63,0002.26
2023-11-06 00:17:00,SystemResetWarning,0825.3,4.99,000.00,027.7,027.0,000.0,035.8,029.4,9.1,0000.0,0003.81,0002.64,0002.28
2023-11-06 00:18:00,SystemResetWarning,0825.3,5.00,000.00,027.8,027.1,000.0,035.8,029.4,9.2,0000.0,0003.79,0002.64,0002.29
2023-11-06 00:19:00,SystemResetWarning,0825.3,5.01,000.00,027.8,027.1,000.0,035.9,029.5,9.2,0000.0,0003.59,0002.63,0002.29
2023-11-06 00:20:00,SystemResetWarning,0825.4,5.00,000.00,027.8,027.2,000.0,035.9,029.5,9.2,0000.0,0003.37,0002.62,0002.30
2023-11-06 00:21:00,SystemResetWarning,0825.3,5.00,000.00,027.9,027.0,000.0,035.9,029.5,9.1,0000.0,0003.33,0002.60,0002.29
2023-11-06 00:22:00,SystemResetWarning,0825.3,4.99,000.00,027.8,025.0,000.0,035.9,029.3,9.1,0000.0,0003.30,0002.59,0002.29
2023-11-06 00:23:00,SystemResetWarning,0825.2,5.01,000.00,027.7,023.3,000.0,035.9,028.9,9.1,0000.0,0003.26,0002.59,0002.30
2023-11-06 00:24:00,SystemResetWarning,0825.2,5.01,000.00,027.6,023.2,000.0,035.8,028.7,9.1,0000.0,0003.28,0002.63,0002.31
2023-11-06 00:25:00,SystemResetWarning,0825.3,4.99,000.00,027.4,023.7,000.0,035.8,028.3,9.2,0000.0,0003.39,0002.67,0002.32
2023-11-06 00:26:00,SystemResetWarning,0825.3,4.99,000.00,027.3,024.2,000.0,035.7,028.4,9.3,0000.0,0003.43,0002.69,0002.32
2023-11-06 00:27:00,SystemResetWarning,0825.3,5.02,000.00,027.3,024.6,000.0,035.7,028.5,9.3,0000.0,0003.39,0002.68,0002.30
2023-11-06 00:28:00,SystemResetWarning,0825.4,5.00,000.00,027.3,025.0,000.0,035.7,028.6,9.3,0000.0,0003.30,0002.66,0002.31
2023-11-06 00:29:00,SystemResetWarning,0825.4,5.00,000.00,027.3,025.4,000.0,035.7,028.7,9.4,0000.0,0003.26,0002.64,0002.30
2023-11-06 00:30:00,SystemResetWarning,0825.4,5.00,000.00,027.3,025.7,000.0,035.6,028.8,9.3,0000.0,0003.32,0002.65,0002.31
2023-11-06 00:31:00,SystemResetWarning,0825.4,5.01,000.00,027.3,025.9,000.0,035.6,028.9,9.3,0000.0,0003.31,0002.64,0002.32
2023-11-06 00:32:00,SystemResetWarning,0825.4,5.00,000.00,027.4,026.1,000.0,035.6,028.9,9.3,0000.0,0003.27,0002.63,0002.33
2023-11-06 00:33:00,SystemResetWarning,0825.5,5.00,000.00,027.4,026.3,000.0,035.7,029.0,9.3,0000.0,0003.68,0002.61,0002.31
2023-11-06 00:34:00,SystemResetWarning,0825.5,5.00,000.00,027.5,026.4,000.0,035.7,029.1,9.3,0000.0,0004.45,0002.62,0002.31
2023-11-06 00:35:00,SystemResetWarning,0825.5,5.00,000.00,027.5,026.5,000.0,035.7,029.1,9.3,0000.0,0004.36,0002.60,0002.32
2023-11-06 00:36:00,SystemResetWarning,0825.4,5.00,000.00,027.5,026.6,000.0,035.7,029.2,9.3,0000.0,0004.43,0002.60,0002.33
2023-11-06 00:37:00,SystemResetWarning,0825.4,5.01,000.00,027.6,026.7,000.0,035.7,029.2,9.2,0000.0,0005.49,0002.60,0002.33
2023-11-06 00:38:00,SystemResetWarning,0825.5,4.99,000.00,027.6,026.8,000.0,035.7,029.3,9.3,0000.0,0005.47,0002.59,0002.35
2023-11-06 00:39:00,SystemResetWarning,0825.6,4.99,000.00,027.7,026.9,000.0,035.8,029.3,9.2,0000.0,0005.47,0002.59,0002.34
2023-11-06 00:40:00,SystemResetWarning,0825.6,4.99,000.00,027.7,027.0,000.0,035.8,029.4,9.1,0000.0,0005.51,0002.62,0002.34
2023-11-06 00:41:00,SystemResetWarning,0825.6,5.00,000.00,027.7,027.0,000.0,035.8,029.4,9.1,0000.0,0005.41,0002.60,0002.34
2023-11-06 00:42:00,SystemResetWarning,0825.6,5.00,000.00,027.8,027.1,000.0,035.9,029.4,9.1,0000.0,0005.47,0002.59,0002.32
2023-11-06 00:43:00,SystemResetWarning,0825.6,5.00,000.00,027.8,027.1,000.0,035.9,029.5,9.1,0000.0,0006.01,0002.61,0002.31
2023-11-06 00:44:00,SystemResetWarning,0825.6,5.01,000.00,027.9,027.2,000.0,035.9,029.5,9.1,0000.0,0006.56,0002.64,0002.31
2023-11-06 00:45:00,SystemResetWarning,0825.6,5.00,000.00,027.9,027.2,000.0,036.0,029.5,9.1,0000.0,0006.54,0002.65,0002.31
2023-11-06 00:46:00,SystemResetWarning,0825.5,5.00,000.00,027.9,027.3,000.0,036.0,029.5,9.0,0000.0,0007.08,0002.67,0002.31
2023-11-06 00:47:00,SystemResetWarning,0825.6,4.99,000.00,027.9,026.3,000.0,036.0,029.5,9.0,0000.0,0007.08,0002.66,0002.29
2023-11-06 00:48:00,SystemResetWarning,0825.5,5.01,000.00,027.9,024.4,000.0,036.0,029.3,9.1,0000.0,0006.20,0002.66,0002.29
2023-11-06 00:49:00,SystemResetWarning,0825.5,5.01,000.00,027.8,024.1,000.0,036.0,029.0,9.1,0000.0,0006.07,0002.68,0002.28
2023-11-06 00:50:00,SystemResetWarning,0825.5,5.00,000.00,027.6,024.4,000.0,035.9,028.7,9.2,0000.0,0006.22,0002.72,0002.28
2023-11-06 00:51:00,SystemResetWarning,0825.6,5.00,000.00,027.5,024.8,000.0,035.9,028.7,9.2,0000.0,0006.86,0002.72,0002.29
2023-11-06 00:52:00,SystemResetWarning,0825.6,5.01,000.00,027.5,025.2,000.0,035.9,028.8,9.3,0000.0,0007.55,0002.71,0002.30
2023-11-06 00:53:00,SystemResetWarning,0825.6,4.99,000.00,027.5,025.6,000.0,035.9,028.9,9.2,0000.0,0007.55,0002.72,0002.31
2023-11-06 00:54:00,SystemResetWarning,0825.6,5.00,000.00,027.5,025.8,000.0,035.9,029.0,9.2,0000.0,0007.48,0002.71,0002.32
2023-11-06 00:55:00,SystemResetWarning,0825.6,5.00,000.00,027.5,026.1,000.0,035.8,029.1,9.2,0000.0,0007.41,0002.70,0002.33
2023-11-06 00:56:00,SystemResetWarning,0825.6,5.00,000.00,027.6,026.3,000.0,035.9,029.1,9.2,0000.0,0007.13,0002.72,0002.35
2023-11-06 00:57:00,SystemResetWarning,0825.6,5.00,000.00,027.6,026.4,000.0,035.9,029.2,9.2,0000.0,0006.24,0002.69,0002.33
2023-11-06 00:58:00,SystemResetWarning,0825.7,5.00,000.00,027.6,026.6,000.0,035.9,029.2,9.3,0000.0,0006.26,0002.69,0002.33
2023-11-06 00:59:00,SystemResetWarning,0825.7,5.00,000.00,027.7,026.7,000.0,035.9,029.3,9.3,0000.0,0006.58,0002.66,0002.33
